STARLINK-2588, 48398

Orbit data source: Space-Track

STARLINK-2588, 48398 is a payload satellite owned by SpaceX/Seattle (US) in LEO that was launched on Tue, 04 May 2021 UTC via an FALCON 9 launch vehicle from the Air Force Eastern Test Range (AFETR). Payload-class satellites include a variety of spacecraft equipped with specific instruments for various scientific and technological missions. These include communications satellites like Starlink; space stations such as the ISS; scientific satellites like the Hubble; Earth observation satellites from companies like Planet Labs, Umbra, and HawkEye 360; GPS; miniature CubeSats for education and research; and military/defense satellites.

Loading next visibility...
Identifier
48398, 2021-038AX
Orbit
LEO
Country
Flag of USUS
Related business
Manufacturer
SpaceX/Seattle
Mission
Operational Commercial Communications
Bus & Motor
STARLINK, Unknown motor
Mass
260 kg wet, ~248 kg dry
Launch date (UTC)
2021-05-04 (5 years ago)
Launch vehicle
FALCON 9
Launch site
Air Force Eastern Test Range (AFETR)
Object type
Payload
Rocket body
Debris
Shape & HBR
Box + 1 Pan, 10.1 m
Radar Cross Section
13.562 m², Large (>1 m²)

Expand to show TLE details & history
Last TLE update: 2 days ago

TLE from 2 days ago
0 STARLINK-2588
1 48398U 21038AX  26171.45863933  .00020353  00000-0  92314-3 0  9999
2 48398  53.0730 229.4686 0004421  49.5841 310.5539 15.20815405284170
Epoch: 2026-06-20T11:00Z
TLE epoch observation values (Epoch: 2026-06-20T11:00:26.438Z)
Latitude
-0.00006°
Longitude
155.68543°
Altitude
502.289 km
Speed
7.615 km/s
True Right ascension
15h 17m 52s
True Declination
0° 00' 00"
Sunlit
Object was in full shadow at epoch
Visualization orbit readout
Latitude
Unknown
Longitude
Unknown
Altitude
Unknown
Speed
Unknown
Apparent Right ascension
Unknown
Apparent Declination
Unknown
Sunlit
N/A
Visualization observer readout
Local Sidereal Time
21:27:50
Azimuth
Unknown
Elevation
Unknown
Doppler factor
Unknown
Orbital elements
Apogee altitude
506.692 km
Perigee altitude
500.607 km
Semi-major axis
6,881.786 km
Eccentricity
0.00044
Inclination
53.073°
RAAN
229.4686°
Arg. of periapsis
49.5841°
True anomaly
310.51539°
Mean anomaly
310.5539°
Eccentric anomaly
310.53465°
Mean motion
3.80182 °/min
Orbital period
94.69 mins
BSTAR
0.00092314
Loading maneuver chart data...
Computing Atmospheric mass density...

Documentation

Showing up to 5 results
|